Regional Weather Roundup
Issued by NWS Huntsville, AL

Home | Current Version | Previous Version | Text Only | Print | Product List | Glossary On
Versions: 1 2 3 4 5 6 7 8 9 10 11 12 13 14 15 16 17 18 19 20 21 22 23 24 25 26 27 28 29 30 31 32 33 34 35 36 37 38 39 40 41 42 43 44 45 46 47 48 49 50
000
ASUS44 KHUN 300810
RWRHUN

WEATHER ROUNDUP FOR THE TENNESSEE VALLEY
NATIONAL WEATHER SERVICE HUNTSVILLE AL
300 AM CDT SAT AUG 30 2014

ALZ001>004-300900-
NORTHWEST ALABAMA

CITY           SKY/WX    TMP DP  RH WIND       PRES   REMARKS
COURTLAND HCN    N/A     72 N/A N/A CALM        N/A
RUSSELLVILLE     N/A     68 N/A N/A MISG        N/A
SHOALS AIRPORT PTCLDY    70  65  84 SE3       30.06S
SHOALS TVA RES   N/A     70 N/A N/A MISG        N/A
$$

ALZ005>007-016-300900-
NORTH CENTRAL ALABAMA

CITY           SKY/WX    TMP DP  RH WIND       PRES   REMARKS
CULLMAN AG STN   N/A     70 N/A N/A CALM        N/A
DECATUR AP     CLEAR     71  66  84 CALM      30.07R
HUNTSVILLE AP  CLEAR     74  65  73 SE5       30.06S
HUN NWS/UAH      N/A     75  64  68 SE2         N/A
MERIDIANVILLE  CLEAR     66  63  88 CALM      30.07S
VINEMONT AP    FAIR      69  65  86 CALM      30.10S
$$

ALZ008>010-300900-
NORTHEAST ALABAMA

CITY           SKY/WX    TMP DP  RH WIND       PRES   REMARKS
ALBERTVILLE    MOCLDY    72  68  88 SE5       30.09S
FORT PAYNE     MOCLDY    66  61  82 CALM      30.09S
SCOTTSBORO AP    N/A     68  68 100 CALM      30.09S
SCOTTSBORO HCN   N/A     66 N/A N/A MISG        N/A
VALLEY HEAD      N/A     68 N/A N/A MISG        N/A
$$

TNZ076-096-097-300900-
SOUTHEASTERN MIDDLE TENNESSEE

CITY           SKY/WX    TMP DP  RH WIND       PRES   REMARKS
FAYETTEVILLE   CLEAR     72  61  68 S3        30.08S
TULLAHOMA      CLEAR     64  63  94 CALM      30.10S
WINCHESTER     CLEAR     70  64  83 CALM      30.09S
$$

...SURROUNDING SITES...

CITY           SKY/WX    TMP DP  RH WIND       PRES   REMARKS
ATLANTA        MOCLDY    75  64  68 CALM      30.12R
ANNISTON       MOCLDY    73  67  81 E3        30.08F
BIRMINGHAM     CLOUDY    80  69  69 SE5       30.08S
CHATTANOOGA    MOCLDY    71  65  81 CALM      30.10S
CORINTH        FAIR      72  66  83 CALM      30.02S
DALTON         PTCLDY    66  66 100 CALM      30.10S
GADSDEN        MOCLDY    72  64  78 CALM      30.08S
GOLDEN TRNGL   CLOUDY    79  66  65 S5        30.04R
HALEYVILLE     FAIR      69  66  90 CALM      30.09S
JACKSON TN     MOCLDY    73  66  78 CALM      30.00S
LEWISBURG      FAIR      68  64  86 CALM      30.06S
MEMPHIS        PTCLDY    78  70  76 S6        29.98F
NASHVILLE      MOCLDY    71  65  81 S5        30.05S
ROME           MOCLDY    70  64  81 CALM      30.09R
SAVANNAH       CLEAR     72  66  83 S5        30.03S
TUPELO         CLOUDY    77  68  73 CALM      30.02S
TUSCALOOSA     CLOUDY    78  69  73 S5        30.05R
$$

...GULF COAST WEATHER...

CITY           SKY/WX    TMP DP  RH WIND       PRES   REMARKS
GULFPORT       MOCLDY    82  77  84 S6        30.00F HX  90
PASCAGOULA     MOCLDY    78  75  90 CALM      30.02F
MOBILE         MOCLDY    76  76 100 SE5       30.04F
GULF SHORES    PTSUNNY   80  75  85 S6        30.02F
PENSACOLA      MOCLDY    81  75  82 S9        30.03S
DESTIN         MOCLDY    83  76  79 CALM      30.04F HX  91
PANAMA CITY    PTCLDY    82  76  84 S6        30.07F
APPALACHICOLA  PTCLDY    77  75  93 CALM      30.07F
$$



USA.gov is the U.S. government's official web portal to all federal, state and local government web resources and services.